Probability
0 0 0 0 0 0 0 0 0 0 0 0 0 0 0 0 0 0 0 0 0 0 0 0 0 0 0 0 0 0 0 0 0 0 0 0 0 0 0 0 0 0 0 0
0 0 0 0 0 0 0 0 0 0 0 0 0 0 0 0 0 0 0 0 0 0 0 0 0 0 0 0 0 0 0 0 0 0 0 0 0 0 0 0 0 0 0 0
0 0 0 0 0 0 0 0 0 0 0 0 0 0 0 0 0 0 0 0 0 0 0 0 0 0 0 0 0 0 0 0 0 0 0 0 0 0 0 0 0 0 0 0
0 0 0 0 0 0 0 0 0 0 0 0 0 0 0 0 0 0 0 0 0 0 0 0 0 0 0 0 0 0 0 0 0 0 0 0 0 0 0 0 0 0 0 0
0 0 0 0 0 0 0 0 0 0 0 0 0 0 0 0 0 0 0 0 0 0 0 0 0 0 0 0 0 0 0 0 0 0 0 0 0 0 0 0 0 0 0 0
0 0 0 0 0 0 0 0 0 0 0 0 0 0 0 0 0 0 0 0 0 0 0 0 0 0 0 0 0 0 0 0 0 0 0 0 0 0 0 0 0 0 0 0
0 0 0 0 0 0 0 0 0 0 0 0 0 0 0 0 0 0 0 0 0 0 0 0 0 0 0 0 0 0 0 0 0 0 0 0 0 0 0 0 0 0 0 0
0 0 0 0 0 0 0 0 0 0 0 0 0 0 0 0 0 0 0 0 0 0 0 0 0 0 0 0 0 0 0 0 0 0 0 0 0 0 0 0 0 0 0 0
0 0 0 0 0 0 0 0 0 0 0 0 0 0 0 0 0 0 0 0 0 0 0 0 0 0 0 0 0 0 0 0 0 0 0 0 0 0 0 0 0 0 0 0
0 0 0 0 0 0 0 0 0 0 0 0 0 0 0 0 0 0 0 0 0 0 0 0 0 0 0 0 0 0 0 0 0 0 0 0 0 0 0 0 0 0 0 0
0 0 0 0 0 0 0 0 0 0 0 0 0 0 0 0 0 0 0 0 0 0 0 0 0 0 0 0 0 0 0 0 0 0 0 0 0 0 0 0 0 0 0 0
0 0 0 0 0 0 0 0 0 0 0 0 0 0 0 0 0 0 0 0 0 0 0 0 0 0 0 0 0 0 0 0 0 0 0 0 0 0 0 0 0 0 0 0
0 0 0 0 0 0 0 0 0 0 0 0 0 0 0 0 0 0 0 0 0 0 0 0 0 0 0 0 0 0 0 0 0 0 0 0 0 0 0 0 0 0 0 0
0 0 0 0 0 0 0 0 0 0 0 0 0 0 0 0 0 0 0 0 0 0 0 0 0 0 0 0 0 0 0 0 0 0 0 0 0 0 0 0 0 0 0 0
0 0 0 0 0 0 0 0 0 0 0 0 0 0 0 0 0 0 0 0 0 0 0 0 0 0 0 0 0 0 0 0 0 0 0 0 0 0 0 0 0 0 0 0
0 0 0 0 0 0 0 0 0 0 0 0 0 0 0 0 0 0 0 0 0 0 0 0 0 0 0 0 0 0 0 0 0 0 0 0 0 0 0 0 0 0 0 0
0 0 0 0 0 0 0 0 0 0 0 0 0 0 0 0 0 0 0 0 0 0 0 0 0 0 0 0 0 0 0 0 0 0 0 0 0 0 0 0 0 0 0 0
0 0 0 0 0 0 0 0 0 0 0 0 0 0 0 0 0 0 0 0 0 0 0 0 0 0 0 0 0 0 0 0 0 0 0 0 0 0 0 0 0 0 0 0
0 0 0 0 0 0 0 0 0 0 0 0 0 0 0 0 0 0 0 0 0 0 0 0 0 0 0 0 0 0 0 0 0 0 0 0 0 0 0 0 0 0 0 0
0 0 0 0 0 0 0 0 0 0 0 0 0 0 0 0 0 0 0 0 0 0 0 0 0 0 0 0 0 0 0 0 0 0 0 0 0 0 0 0 0 0 0 0
0 0 0 0 0 0 0 0 0 0 0 0 0 0 0 0 0 0 0 0 0 0 0 0 0 0 0 0 0 0 0 0 0 0 0 0 0 0 0 0 0 0 0 0
0 0 0 0 0 0 0 0 0 0 0 0 0 0 0 0 0 0 0 0 0 0 0 0 0 0 0 0 0 0 0 0 0 0 0 0 0 0 0 0 0 0 0 0
0 0 0 0 0 0 0 0 0 0 0 0 0 0 0 0 0 0 0 0 0 0 0 0 0 0 0 0 0 0 0 0 0 0 0 0 0 0 0 0 0 0 0 0
0 0 0 0 0 0 0 0 0 0 0 0 0 0 0 0 0 0 0 0 0 0 0 0 0 0 0 0 0 0 0 0 0 0 0 0 0 0 0 0 0 0 0 0
0 0 0 0 0 0 0 0 0 0 0 0 0 0 0 0 0 0 0 0 0 0 0 0 0 0 0 0 0 0 0 0 0 0 0 0 0 0 0 0 0 0 0 0
0 0 0 0 0 0 0 0 0 0 0 0 0 0 0 0 0 0 0 0 0 0 0 0 0 0 0 0 0 0 0 0 0 0 0 0 0 0 0 0 0 0 0 0
0 0 0 0 0 0 0 0 0 0 0 0 0 0 0 0 0 0 0 0 0 0 0 0 0 0 0 0 0 0 0 0 0 0 0 0 0 0 0 0 0 0 0 0
Height
5530 5535 5540 5545 5551 5556 5561 5567 5573 5578 5582 5586 5590 5594 5597 5601 5604 5606 5609 5612 5614 5616 5618 5620 5621 5623 5624 5625 5625 5625 5625 5625 5624 5623 5621 5619 5617 5614 5611 5608 5604 5601 5597 5593
5521 5526 5531 5536 5542 5547 5553 5558 5563 5568 5573 5577 5581 5584 5588 5591 5594 5597 5599 5602 5604 5606 5608 5610 5612 5613 5614 5614 5614 5614 5614 5614 5613 5611 5610 5607 5605 5602 5599 5596 5592 5588 5584 5580
5513 5518 5522 5527 5534 5539 5545 5550 5555 5558 5565 5568 5571 5574 5578 5581 5584 5587 5589 5592 5594 5596 5598 5599 5601 5602 5603 5603 5603 5603 5603 5602 5601 5600 5598 5596 5593 5590 5587 5583 5580 5576 5572 5568
5505 5510 5514 5522 5526 5531 5536 5541 5545 5549 5554 5558 5561 5565 5568 5571 5574 5577 5579 5582 5584 5586 5587 5589 5590 5591 5592 5592 5592 5592 5592 5591 5590 5588 5587 5585 5582 5579 5575 5572 5568 5564 5561 5556
5497 5501 5505 5513 5518 5522 5527 5531 5536 5540 5544 5548 5552 5555 5559 5562 5564 5567 5569 5572 5574 5575 5577 5578 5579 5580 5580 5581 5581 5581 5580 5579 5578 5577 5575 5573 5570 5567 5564 5561 5557 5553 5549 5545
5491 5494 5499 5506 5510 5513 5518 5522 5528 5531 5535 5539 5542 5546 5551 5552 5554 5557 5559 5562 5563 5565 5566 5568 5568 5569 5570 5570 5570 5569 5569 5568 5567 5566 5564 5562 5559 5556 5553 5550 5547 5543 5539 5535
5484 5487 5492 5498 5502 5505 5511 5515 5519 5522 5526 5530 5533 5537 5540 5542 5545 5547 5550 5552 5553 5555 5556 5557 5558 5559 5559 5559 5559 5558 5558 5557 5556 5555 5553 5551 5548 5545 5543 5540 5537 5533 5530 5526
5478 5482 5488 5492 5495 5499 5502 5506 5510 5514 5517 5521 5524 5527 5530 5533 5535 5538 5540 5542 5544 5545 5546 5547 5547 5548 5548 5548 5548 5547 5547 5546 5545 5544 5542 5540 5538 5535 5532 5529 5526 5523 5520 5516
5474 5478 5481 5484 5488 5491 5495 5498 5502 5506 5509 5512 5515 5518 5521 5524 5526 5529 5531 5532 5534 5535 5536 5537 5537 5537 5538 5537 5537 5537 5536 5535 5534 5533 5531 5529 5527 5524 5522 5519 5516 5513 5510 5507
5468 5472 5475 5478 5481 5484 5488 5491 5494 5498 5501 5504 5507 5510 5512 5515 5517 5519 5521 5522 5524 5525 5526 5527 5527 5527 5527 5527 5526 5526 5525 5524 5523 5522 5520 5518 5516 5514 5511 5509 5506 5503 5500 5497
5463 5466 5469 5472 5475 5478 5481 5485 5488 5491 5494 5496 5499 5501 5504 5506 5508 5510 5511 5513 5514 5515 5516 5516 5516 5517 5516 5516 5516 5515 5515 5514 5513 5511 5510 5508 5506 5503 5501 5499 5495 5493 5490 5487
5458 5461 5463 5467 5469 5472 5475 5478 5481 5483 5486 5488 5491 5493 5495 5497 5499 5501 5502 5503 5504 5505 5506 5506 5506 5506 5506 5506 5506 5505 5505 5504 5502 5501 5499 5497 5495 5493 5490 5488 5485 5482 5480 5477
5453 5455 5458 5461 5463 5466 5468 5471 5473 5476 5478 5481 5483 5485 5487 5489 5490 5492 5493 5494 5495 5495 5496 5496 5496 5496 5496 5496 5496 5495 5494 5493 5492 5491 5489 5487 5485 5483 5481 5479 5476 5473 5470 5468
5448 5450 5453 5455 5457 5459 5462 5464 5466 5468 5471 5473 5475 5477 5478 5480 5482 5483 5484 5485 5485 5486 5486 5486 5486 5486 5486 5486 5486 5485 5484 5483 5482 5480 5479 5477 5475 5473 5471 5469 5468 5465 5462 5459
5443 5445 5447 5449 5451 5453 5455 5457 5459 5461 5463 5465 5467 5468 5470 5472 5473 5474 5475 5476 5476 5477 5477 5477 5477 5477 5477 5477 5476 5476 5475 5474 5472 5470 5469 5467 5465 5463 5462 5460 5459 5457 5454 5452
5437 5439 5441 5443 5445 5446 5448 5450 5451 5453 5455 5457 5458 5460 5462 5463 5465 5465 5466 5467 5467 5467 5468 5467 5467 5467 5467 5467 5467 5466 5465 5464 5463 5461 5460 5458 5456 5455 5453 5452 5450 5449 5447 5446
5432 5434 5435 5437 5438 5440 5441 5443 5444 5446 5447 5449 5451 5452 5454 5455 5456 5457 5458 5458 5459 5459 5459 5459 5458 5458 5458 5458 5457 5457 5456 5455 5454 5453 5451 5450 5448 5447 5445 5444 5443 5442 5441 5440
5427 5428 5429 5431 5432 5434 5435 5437 5438 5439 5440 5442 5443 5445 5446 5448 5449 5450 5450 5450 5451 5451 5450 5450 5450 5450 5449 5449 5449 5448 5448 5447 5446 5445 5443 5442 5441 5440 5439 5438 5437 5436 5435 5434
5422 5423 5424 5425 5426 5428 5429 5430 5432 5433 5434 5435 5437 5438 5439 5440 5441 5442 5443 5443 5443 5443 5443 5443 5443 5442 5442 5441 5441 5440 5440 5439 5438 5437 5436 5435 5435 5434 5433 5432 5431 5431 5430 5429
5417 5418 5419 5420 5421 5422 5423 5424 5426 5427 5428 5429 5431 5432 5433 5433 5434 5435 5435 5436 5436 5436 5436 5435 5435 5435 5434 5434 5434 5433 5433 5432 5431 5431 5430 5429 5429 5428 5428 5427 5427 5426 5425 5424
5412 5413 5413 5414 5415 5416 5418 5419 5420 5421 5422 5423 5424 5425 5426 5427 5428 5428 5428 5429 5429 5429 5429 5429 5428 5428 5428 5427 5427 5427 5426 5426 5425 5425 5424 5424 5424 5423 5423 5422 5422 5421 5420 5420
5408 5408 5409 5409 5410 5411 5412 5413 5415 5416 5417 5417 5418 5419 5420 5420 5421 5421 5422 5422 5422 5422 5422 5422 5422 5421 5421 5421 5421 5420 5420 5420 5420 5419 5419 5419 5419 5418 5418 5417 5417 5416 5416 5416
5403 5404 5404 5405 5406 5406 5407 5408 5409 5410 5411 5412 5412 5413 5414 5414 5415 5415 5415 5415 5415 5416 5416 5416 5416 5416 5416 5415 5415 5415 5415 5415 5414 5414 5414 5414 5413 5413 5413 5412 5412 5412 5412 5412
5399 5399 5400 5400 5401 5402 5402 5403 5404 5404 5405 5406 5406 5407 5408 5408 5408 5409 5409 5409 5409 5410 5410 5410 5410 5410 5410 5410 5410 5410 5409 5409 5409 5409 5409 5409 5409 5408 5408 5408 5408 5408 5408 5409
5394 5395 5395 5396 5396 5397 5397 5398 5398 5399 5399 5400 5400 5401 5401 5402 5402 5403 5403 5403 5404 5404 5404 5405 5405 5405 5405 5405 5404 5404 5404 5404 5404 5404 5404 5404 5404 5404 5404 5405 5405 5406 5406 5407
5390 5390 5390 5391 5391 5392 5392 5393 5393 5393 5394 5394 5394 5395 5395 5396 5396 5397 5397 5398 5398 5398 5399 5399 5399 5399 5399 5399 5399 5399 5399 5400 5400 5400 5400 5400 5401 5401 5401 5402 5403 5404 5405 5405
5385 5385 5385 5386 5386 5387 5387 5388 5388 5388 5388 5389 5389 5389 5389 5390 5390 5391 5392 5392 5392 5393 5393 5393 5394 5394 5394 5394 5394 5395 5395 5395 5396 5396 5396 5397 5397 5398 5399 5400 5401 5402 5403 5405
Wind_Speed
41 40 41 42 43 43 44 45 44 43 42 42 42 41 40 39 39 39 39 39 40 40 40 40 40 40 40 41 41 41 42 43 44 45 45 46 47 48 48 50 51 52 53 53
42 40 40 42 42 43 44 45 44 44 43 42 42 43 42 40 39 39 39 39 39 39 40 41 41 41 42 42 42 42 43 44 44 45 46 46 47 48 49 50 51 51 52 52
40 40 40 41 41 41 42 43 43 44 42 41 42 42 41 40 40 40 40 39 39 39 40 41 42 42 42 42 43 43 44 44 44 45 46 46 47 48 48 49 49 49 49 50
37 38 39 40 39 39 39 39 41 42 42 42 42 42 41 41 40 40 40 40 40 40 40 41 42 43 43 43 44 44 44 44 45 45 45 46 46 47 47 47 48 48 48 49
34 35 37 38 37 38 39 38 38 39 40 41 41 41 40 39 39 39 39 39 40 40 40 41 42 42 42 43 43 43 44 44 44 44 44 45 45 46 46 46 46 46 46 47
33 33 33 33 33 36 38 39 38 38 38 39 39 39 38 38 39 39 39 38 38 38 39 40 40 40 41 42 42 43 43 43 43 43 44 44 45 45 45 45 45 45 46 45
31 31 31 30 30 32 34 35 35 36 37 37 38 38 37 37 37 37 38 38 38 38 39 39 39 39 40 41 41 42 42 42 42 43 43 43 43 43 44 44 44 44 44 44
29 29 29 28 29 30 31 31 32 33 34 35 36 36 36 36 36 36 36 37 37 38 38 38 38 39 39 39 40 41 41 41 42 42 42 42 43 43 43 44 43 43 43 42
26 26 25 26 28 28 29 29 30 31 32 33 34 34 34 35 35 36 37 37 37 37 37 38 38 38 38 39 40 40 41 41 41 41 41 42 42 43 43 43 42 42 41 41
24 23 23 24 25 27 28 28 28 29 30 31 32 33 33 33 34 35 35 35 36 36 37 37 37 38 38 38 39 39 40 40 40 41 41 41 42 43 42 42 41 41 40 39
22 23 23 23 24 25 26 27 28 28 29 29 30 31 32 32 33 33 34 35 35 35 36 36 36 37 37 37 37 38 38 38 39 39 40 41 41 41 41 41 40 39 39 39
21 21 22 23 24 25 25 26 27 28 29 30 30 30 31 32 32 32 33 33 34 35 35 36 36 37 37 37 37 37 37 38 38 39 39 40 41 40 39 38 38 38 37 37
20 20 21 22 23 24 25 25 26 28 28 29 29 30 30 30 30 31 31 32 32 32 33 34 35 35 35 35 36 36 36 37 37 38 38 39 39 38 37 36 36 36 35 34
21 21 22 22 23 24 25 26 27 28 28 28 29 29 29 30 30 30 30 31 31 31 32 32 33 33 33 33 34 34 34 35 36 36 36 37 36 35 34 33 33 33 33 32
21 22 22 23 23 24 24 25 26 27 27 27 27 27 27 27 28 29 29 29 30 30 31 31 32 32 33 33 33 33 33 34 34 34 34 34 33 32 32 31 31 31 30 28
21 21 21 22 23 24 24 24 25 26 27 27 26 26 26 26 26 27 27 28 29 29 30 31 31 31 32 32 32 32 32 32 32 32 31 31 31 30 29 28 28 27 25 24
20 20 21 22 22 23 23 23 23 24 25 25 26 26 26 25 25 25 25 26 27 27 28 28 29 29 29 30 30 31 31 31 30 30 29 29 28 27 25 24 23 22 21 20
18 19 20 20 21 21 22 22 22 22 22 22 23 24 24 24 24 24 24 24 25 25 26 26 26 26 27 27 28 28 28 28 27 26 25 25 24 23 21 20 19 18 18 17
17 18 19 19 19 20 20 20 20 20 20 21 21 21 22 22 23 23 23 23 24 24 24 24 25 25 25 25 25 25 24 24 24 23 23 22 20 19 18 17 16 16 16 15
17 18 18 19 19 19 19 19 19 19 19 19 20 20 21 21 22 22 23 23 24 24 23 23 23 23 23 23 22 22 22 21 20 20 19 18 17 17 16 15 14 14 14 13
15 16 16 17 18 19 19 19 18 18 18 19 20 20 21 21 22 22 23 23 23 23 22 22 22 22 21 21 21 20 19 18 18 17 17 16 16 15 15 14 14 14 13 12
15 15 15 16 16 17 17 17 18 18 18 18 19 19 20 20 21 21 21 21 21 21 21 20 20 19 19 19 18 18 17 17 17 16 16 16 15 15 14 14 14 13 12 11
15 15 14 14 15 15 16 16 17 17 18 18 18 19 19 20 20 20 20 20 20 19 18 18 17 17 17 16 17 17 16 16 16 15 15 15 14 14 14 13 13 12 10 9
15 15 15 15 15 15 15 16 16 17 18 18 19 19 19 19 19 19 18 18 18 17 17 17 17 16 16 16 16 16 15 15 14 14 13 13 12 12 12 11 10 8 7 7
15 15 15 15 16 16 16 16 16 17 17 18 18 18 19 19 19 18 18 17 17 17 16 17 16 16 15 15 15 15 15 14 13 13 12 12 11 10 10 9 8 7 6 5
16 16 16 16 16 16 15 15 16 16 17 17 18 18 18 18 18 18 18 17 17 17 17 17 16 15 15 14 14 13 14 13 13 12 12 11 10 9 9 8 8 6 6 5
16 16 15 15 15 16 16 16 16 16 17 17 17 18 18 18 18 17 17 17 17 17 17 16 16 15 15 14 13 13 13 13 13 12 12 11 10 9 8 8 7 6 6 6
Wind_Direction
231 233 234 235 235 234 235 236 238 240 242 243 246 249 251 253 255 255 255 255 256 257 257 257 258 259 261 264 266 268 270 272 274 276 279 281 282 283 284 285 286 288 289 290
231 232 235 236 235 235 235 236 238 240 242 243 246 248 250 253 255 256 256 257 257 258 258 258 260 262 265 265 266 268 270 273 275 277 279 281 282 284 284 286 287 289 290 290
232 232 235 237 236 237 237 238 239 240 242 243 245 248 250 252 254 255 256 257 257 258 259 260 262 264 266 266 268 270 271 273 275 277 279 281 283 285 285 286 288 289 289 290
233 233 236 238 237 238 238 238 240 241 241 243 246 248 250 251 252 253 255 257 258 258 260 261 262 264 265 267 269 270 272 274 276 278 280 282 284 285 286 287 288 288 290 291
233 235 239 239 238 238 238 239 240 241 242 243 246 248 249 250 251 252 254 255 257 259 260 262 263 264 265 267 269 270 272 274 276 278 281 283 284 284 285 287 288 289 291 292
232 235 238 239 239 239 240 241 240 241 242 243 245 247 248 250 250 251 253 255 257 259 260 262 263 264 265 267 269 271 273 274 276 278 281 283 284 285 285 286 287 290 292 293
232 235 237 236 237 236 237 238 239 240 241 243 245 246 248 250 251 252 253 256 258 260 261 263 264 265 266 267 269 270 272 274 276 278 281 282 285 285 285 286 288 290 292 293
231 233 235 234 235 235 236 236 238 239 241 243 246 248 249 250 252 253 255 257 258 260 262 264 265 267 267 268 269 271 273 274 276 278 281 283 285 285 286 287 289 290 291 292
232 235 236 236 237 236 234 235 237 239 241 243 246 248 250 252 254 255 256 258 259 261 262 264 266 266 267 268 270 271 273 275 276 279 281 283 284 285 286 287 288 290 290 291
232 234 234 234 236 236 236 237 238 239 242 244 246 249 252 255 256 257 257 259 260 261 263 264 265 265 267 270 271 272 273 275 277 279 280 282 285 285 286 287 287 288 288 289
237 237 237 236 236 236 238 239 240 241 243 245 247 250 253 255 256 257 258 259 260 261 263 264 264 266 268 270 272 273 274 276 278 279 281 284 285 285 285 286 286 286 287 289
236 236 237 237 238 239 241 243 244 244 245 246 248 250 253 254 256 257 258 259 260 261 264 265 265 267 268 270 272 273 275 276 278 279 281 283 285 284 285 285 285 285 287 289
233 234 236 237 239 240 243 245 245 244 245 247 249 251 253 255 256 258 259 260 261 263 265 265 266 268 270 272 273 274 276 277 278 279 282 284 285 284 284 285 286 286 287 289
240 240 241 241 242 244 246 247 248 248 248 249 251 253 255 256 258 259 261 262 264 265 266 266 268 269 270 272 273 274 276 278 280 281 282 284 285 284 283 284 284 285 286 288
244 244 245 246 248 250 251 250 250 251 250 250 251 253 255 257 258 261 263 265 266 267 267 268 269 270 271 272 273 274 276 278 280 282 284 285 285 284 283 284 285 285 286 286
249 248 247 248 250 251 252 253 253 252 252 251 251 252 254 257 259 261 264 266 267 267 268 269 269 271 271 271 272 273 276 278 281 283 284 285 287 285 283 283 285 284 283 284
250 248 247 248 249 250 251 252 251 251 251 251 251 253 254 256 258 261 264 267 269 270 270 271 271 271 272 272 272 274 276 278 281 282 283 284 286 285 283 283 283 282 280 281
249 249 250 250 250 251 250 250 249 249 248 248 250 251 252 254 257 260 264 267 269 270 271 272 272 272 274 274 274 276 278 280 281 282 282 283 285 284 282 283 282 280 279 281
248 249 250 251 251 251 250 249 248 247 248 249 250 251 253 256 260 263 266 269 271 271 272 273 274 274 274 275 276 278 279 280 281 281 282 282 284 283 282 281 281 281 281 280
251 252 252 252 250 250 250 249 249 249 250 251 252 255 258 260 263 265 267 270 270 270 272 273 274 274 273 274 275 276 278 279 280 280 280 279 281 281 279 279 280 282 281 277
252 252 252 251 250 249 250 250 250 251 253 255 257 259 262 265 267 268 269 270 271 271 272 274 274 274 273 273 273 275 276 277 278 278 277 276 279 279 277 279 281 283 279 274
254 253 253 252 250 249 249 250 251 253 256 259 261 263 264 266 267 268 269 270 271 272 273 274 274 273 273 272 273 274 273 274 276 276 276 276 277 277 276 278 280 280 276 271
256 254 253 253 252 251 251 252 254 255 257 260 262 264 265 266 267 268 269 270 271 271 272 272 272 271 271 272 272 273 273 273 274 274 274 275 275 274 274 275 275 272 269 265
257 257 256 254 254 254 255 257 257 258 260 261 263 264 265 266 267 269 270 270 267 267 269 270 271 271 271 274 273 273 272 271 271 273 274 275 275 272 270 268 264 260 258 253
259 259 259 257 256 256 258 260 260 261 263 263 264 264 265 266 267 267 267 267 265 266 268 270 272 272 273 275 273 270 268 268 269 271 271 271 270 265 258 251 246 245 242 228
261 260 258 257 256 257 258 260 262 263 264 264 264 264 264 265 266 266 267 267 267 267 268 270 272 272 273 275 274 269 264 265 268 268 265 263 259 251 243 236 228 225 219 207
261 258 256 256 257 258 260 261 262 263 264 264 264 265 265 265 265 265 266 267 267 267 268 270 271 270 270 270 270 267 263 264 266 263 257 251 244 237 228 219 211 206 202 196